Wind_Speed
8 9 9 10 10 10 10 10 10 10 10 9 9 8 8 8 8 8 8 8 9 9 9 8 8 9 9 9 9 9 9 9 8 8 8 8 8 8 9 10 11 11
9 10 10 10 10 10 11 11 11 11 10 10 9 8 8 8 8 8 8 8 8 8 7 7 7 8 8 8 8 8 8 8 8 8 8 8 8 8 10 12 11 10
10 11 11 11 11 11 11 11 11 11 11 10 9 8 8 8 8 8 8 8 8 7 7 6 7 7 7 7 7 8 8 8 8 8 8 8 9 9 9 10 9 8
11 10 10 11 10 11 11 11 11 11 10 10 10 9 8 8 8 8 8 8 7 7 7 7 7 7 7 7 7 8 7 6 6 6 6 6 7 8 8 8 8 8
11 11 11 10 10 10 11 10 10 10 10 10 10 9 9 9 9 9 8 8 8 7 7 7 7 7 7 7 7 7 5 6 7 6 6 6 7 8 9 8 9 9
11 11 11 11 11 11 11 10 10 10 10 10 10 10 10 10 9 8 8 8 7 7 6 6 7 7 7 7 7 5 4 5 7 6 5 7 7 8 8 9 10 10
12 11 12 12 12 12 12 12 11 11 10 10 10 10 10 9 9 9 8 8 7 7 7 7 7 7 7 7 6 4 4 5 6 6 5 8 9 9 8 9 11 12
13 12 12 12 13 13 13 12 12 11 11 11 11 11 10 10 10 10 9 8 8 7 7 7 8 8 7 7 6 5 5 6 7 6 6 8 11 11 10 10 11 12
14 14 14 14 14 14 13 13 12 12 13 12 12 12 12 11 11 10 10 9 8 8 7 8 8 8 8 8 8 7 7 8 8 8 8 10 12 13 14 13 12 14
16 16 16 16 15 15 13 13 13 13 14 14 14 14 13 13 12 11 10 10 9 8 8 9 9 9 9 10 10 8 8 10 10 10 11 12 13 15 15 15 15 15
19 19 18 17 17 16 15 15 15 14 15 16 15 15 14 14 14 13 12 12 11 10 10 11 11 11 11 11 11 10 10 11 11 11 11 12 13 15 16 16 16 15
22 21 20 19 19 18 18 17 17 17 17 17 17 17 16 16 16 15 15 15 14 14 13 12 12 13 13 13 13 12 12 13 13 12 13 14 17 19 18 17 17 16
23 22 22 22 22 21 20 20 19 19 18 18 18 18 18 18 17 17 18 17 17 17 16 14 14 16 16 16 15 15 14 14 14 14 16 18 19 20 19 18 17 18
23 24 23 23 24 23 22 22 21 21 20 21 21 20 20 20 20 20 20 20 20 19 17 15 17 19 19 19 18 17 17 17 17 17 19 20 21 21 20 19 18 19
25 25 24 25 25 25 24 24 24 24 23 22 22 22 22 22 21 21 21 22 22 20 17 17 19 21 21 22 21 20 19 19 19 20 21 23 23 23 23 22 22 22
27 27 26 26 26 26 26 26 26 26 25 24 24 24 24 23 23 23 23 24 24 21 19 20 22 22 22 23 23 23 22 21 22 23 24 25 26 25 25 25 26 27
26 27 27 27 27 27 27 28 28 29 28 27 26 26 26 26 26 25 26 26 25 23 23 24 24 23 23 23 24 25 24 23 23 25 26 27 27 26 26 27 28 29
26 27 27 28 29 29 29 30 30 29 30 30 29 29 29 29 29 29 29 29 27 26 26 26 27 27 26 25 26 26 26 24 24 26 27 28 28 27 27 29 30 30
29 29 28 30 32 32 32 33 31 30 30 31 31 30 31 31 31 31 32 31 30 29 28 28 30 30 29 29 29 28 27 26 27 27 28 28 29 29 29 31 32 33
32 33 33 33 33 34 35 36 35 32 30 29 29 30 31 32 32 33 34 33 32 31 29 30 32 32 32 31 31 31 30 30 30 30 30 31 31 31 31 33 34 35
29 31 34 37 37 37 38 38 35 33 31 30 30 32 32 32 30 31 32 32 32 32 30 32 33 33 33 33 32 32 32 32 33 33 33 33 34 34 34 34 35 36
24 25 28 33 36 38 40 40 38 36 34 34 35 34 33 32 31 32 33 32 32 33 32 33 34 34 34 35 34 34 33 34 35 35 36 36 36 36 36 37 37 37
25 25 26 29 32 34 36 36 36 36 36 38 38 35 33 34 34 34 35 34 34 35 35 36 36 37 37 37 37 37 37 37 38 38 38 37 36 36 37 38 38 37
24 24 25 27 29 31 32 31 31 34 36 38 40 37 35 36 37 36 37 38 38 38 39 39 39 39 39 39 39 40 41 41 41 41 39 38 37 37 37 37 36 36
22 22 23 25 28 29 30 28 28 31 33 34 37 38 36 36 38 38 38 38 38 40 41 43 42 41 40 41 42 43 44 44 43 42 41 39 39 37 35 34 33 32
20 20 21 23 25 27 28 28 27 28 28 28 31 34 36 37 38 39 39 39 40 41 41 42 41 40 40 42 42 43 45 45 44 42 41 40 40 39 36 34 31 29
Wind_Direction
222 221 219 219 222 223 225 227 229 232 232 233 233 231 228 226 223 216 209 208 204 201 201 201 205 207 206 208 207 207 210 209 207 206 208 213 217 222 226 227 227 229
232 233 232 230 232 234 236 237 238 238 238 235 233 229 225 223 222 219 211 204 201 198 195 195 202 205 202 204 204 204 205 203 200 199 198 203 209 216 224 226 226 228
232 235 237 237 238 239 241 242 241 240 238 236 232 225 221 219 217 217 212 203 201 199 194 197 207 209 207 208 208 207 207 205 205 203 198 202 210 221 230 234 235 237
226 230 234 236 237 238 239 240 240 239 236 234 229 221 219 218 214 213 213 209 206 203 198 200 207 210 212 215 219 219 217 218 220 217 215 218 228 241 246 246 246 245
222 223 226 229 230 231 233 235 235 236 234 230 225 219 216 216 213 209 211 214 214 211 209 207 207 211 212 216 224 226 225 231 233 228 228 234 246 257 260 260 260 256
227 223 222 223 223 225 226 228 229 229 231 229 226 222 217 215 216 213 212 216 218 219 221 217 216 219 221 224 228 226 230 245 248 245 240 243 247 250 256 266 266 258
234 230 228 224 223 224 222 222 223 221 225 229 228 228 223 219 220 220 220 222 224 226 228 228 227 229 235 238 239 236 234 247 255 256 259 261 258 253 255 264 268 264
233 234 233 231 228 227 225 224 222 218 220 222 224 229 230 228 228 228 230 232 234 236 236 237 240 243 249 252 253 251 248 254 253 245 249 261 263 267 269 269 272 274
232 233 234 234 234 232 229 229 227 222 221 219 220 225 228 232 235 235 235 235 238 244 247 250 251 251 254 253 250 248 252 261 254 245 254 266 268 272 275 273 273 271
234 234 234 234 236 236 233 232 231 228 227 224 222 224 225 229 235 237 239 239 240 243 246 252 257 255 252 252 251 248 249 255 254 254 265 273 271 271 273 273 272 273
237 235 236 236 236 237 235 234 233 230 230 229 226 228 228 228 233 237 240 244 246 246 246 248 254 257 253 252 255 254 254 259 262 263 267 270 270 270 270 272 275 281
239 237 237 238 238 238 236 235 235 233 233 232 230 231 233 234 236 239 241 243 246 249 250 250 253 258 258 256 257 256 255 260 264 265 267 268 269 270 273 277 283 286
241 239 238 239 240 240 239 238 238 236 236 236 234 233 234 236 239 243 244 244 245 247 249 254 259 260 260 259 258 259 258 260 262 262 264 265 266 270 275 279 280 279
240 240 240 241 242 242 242 242 242 241 239 239 239 237 235 236 238 243 247 249 248 246 248 256 261 263 265 263 260 262 263 263 264 266 265 266 269 272 275 275 273 272
240 242 241 241 242 244 244 245 246 246 244 244 246 246 244 242 242 244 249 252 252 249 251 257 259 260 264 265 264 264 265 264 267 270 271 272 274 276 277 277 276 276
239 241 242 241 241 242 244 245 247 249 249 247 249 252 252 251 250 250 253 256 257 257 259 262 261 259 261 264 266 266 266 267 271 273 273 274 275 277 279 281 280 278
241 242 243 243 243 242 242 244 245 247 250 249 248 250 253 254 254 255 256 258 261 263 265 268 268 265 263 264 266 266 266 268 272 273 273 273 274 274 276 277 277 275
244 244 245 246 246 245 243 243 244 245 248 250 249 249 251 253 254 256 258 259 261 263 265 268 271 269 267 266 265 265 267 269 269 269 270 270 271 272 271 272 273 274
245 243 243 244 246 247 246 244 243 245 248 249 249 250 252 254 255 256 259 260 261 263 266 269 270 269 268 267 267 267 268 269 268 268 269 271 272 272 271 271 273 274
248 246 244 243 244 246 248 247 245 245 246 248 252 254 254 255 257 258 259 261 262 264 266 267 267 267 268 268 268 269 269 269 270 270 271 272 272 272 273 274 275 275
255 252 248 246 246 246 248 250 250 247 242 242 249 252 252 253 255 256 257 258 260 261 262 264 266 268 270 270 271 271 272 272 274 275 275 274 274 273 274 275 275 275
257 257 252 250 250 250 250 251 252 248 243 242 245 247 250 252 252 252 254 256 259 260 260 262 264 266 268 269 271 272 273 274 275 276 276 276 276 276 277 278 277 276
256 256 254 252 252 253 253 253 253 251 248 247 246 244 245 249 250 250 252 256 259 260 260 261 263 264 265 267 269 270 271 272 273 275 275 275 277 277 277 277 277 277
256 254 254 254 253 253 255 257 257 255 251 250 249 245 241 243 248 250 253 257 260 261 262 262 262 262 264 266 268 269 270 271 272 274 273 274 276 278 275 274 275 277
259 255 254 255 255 255 257 258 258 257 254 250 249 246 241 241 247 251 255 257 260 261 262 262 262 262 264 266 267 270 271 272 273 274 272 272 275 276 275 274 274 275
260 257 254 255 257 259 261 260 260 261 261 256 251 248 247 247 250 254 256 256 256 257 258 260 260 261 264 267 270 272 272 272 272 272 270 270 273 274 275 275 273 273
Height
5905 5905 5906 5906 5907 5908 5908 5908 5909 5909 5909 5910 5910 5911 5912 5913 5913 5914 5914 5915 5915 5916 5916 5917 5918 5919 5919 5919 5920 5921 5921 5922 5922 5923 5923 5924 5925 5925 5926 5926 5925 5925
5904 5905 5905 5906 5907 5907 5908 5908 5909 5909 5909 5909 5910 5911 5911 5912 5912 5913 5914 5915 5915 5915 5915 5916 5917 5918 5918 5919 5919 5920 5920 5920 5921 5921 5921 5922 5923 5923 5924 5924 5924 5925
5903 5904 5904 5905 5906 5906 5907 5908 5908 5909 5909 5909 5910 5910 5911 5911 5912 5913 5914 5914 5914 5914 5914 5915 5916 5917 5918 5919 5919 5919 5920 5920 5920 5921 5921 5922 5922 5921 5922 5923 5924 5925
5901 5902 5903 5904 5905 5906 5906 5907 5907 5908 5909 5909 5909 5910 5911 5911 5912 5913 5913 5913 5913 5913 5914 5915 5916 5917 5918 5919 5919 5919 5920 5921 5921 5921 5922 5922 5922 5923 5923 5924 5924 5924
5900 5901 5902 5903 5904 5904 5905 5905 5906 5907 5908 5908 5909 5910 5910 5911 5912 5913 5913 5913 5913 5914 5915 5916 5916 5917 5918 5918 5918 5919 5920 5921 5920 5921 5922 5922 5922 5923 5924 5924 5925 5924
5899 5900 5900 5901 5902 5903 5903 5904 5905 5906 5907 5908 5908 5909 5909 5910 5911 5912 5912 5913 5914 5914 5915 5916 5916 5917 5917 5918 5918 5920 5920 5920 5920 5921 5922 5920 5920 5921 5922 5924 5924 5924
5898 5899 5899 5900 5901 5901 5902 5902 5903 5904 5905 5906 5907 5908 5908 5909 5909 5910 5911 5912 5913 5914 5915 5916 5916 5916 5917 5917 5918 5919 5920 5920 5921 5921 5921 5920 5920 5920 5921 5921 5922 5923
5897 5898 5899 5899 5900 5900 5901 5902 5902 5903 5904 5905 5906 5907 5907 5907 5908 5909 5910 5911 5912 5913 5915 5915 5916 5915 5916 5917 5918 5919 5919 5920 5920 5921 5921 5921 5921 5921 5921 5921 5921 5921
5896 5897 5898 5898 5899 5900 5900 5901 5902 5903 5903 5904 5905 5906 5906 5907 5907 5908 5909 5910 5911 5912 5913 5914 5915 5915 5915 5916 5917 5918 5918 5919 5919 5919 5920 5919 5919 5920 5920 5920 5918 5918
5895 5896 5896 5897 5898 5899 5900 5901 5902 5903 5903 5904 5904 5905 5906 5906 5907 5907 5908 5909 5910 5911 5912 5912 5913 5914 5914 5915 5915 5916 5916 5917 5917 5918 5918 5918 5917 5917 5917 5916 5915 5916
5893 5894 5895 5896 5897 5898 5899 5900 5901 5901 5902 5903 5903 5904 5905 5905 5906 5906 5907 5908 5909 5909 5910 5911 5912 5912 5913 5912 5913 5914 5915 5915 5915 5915 5916 5916 5915 5914 5914 5914 5915 5917
5891 5893 5894 5895 5895 5896 5897 5898 5899 5899 5900 5901 5902 5902 5903 5904 5904 5905 5906 5906 5907 5908 5909 5910 5910 5911 5911 5911 5912 5912 5913 5913 5913 5913 5913 5913 5912 5912 5912 5914 5916 5918
5889 5891 5892 5893 5894 5894 5895 5896 5896 5897 5898 5899 5900 5900 5901 5902 5903 5903 5903 5904 5905 5906 5908 5909 5909 5908 5909 5910 5910 5911 5911 5911 5911 5911 5910 5910 5910 5910 5911 5913 5914 5914
5887 5888 5890 5891 5892 5892 5893 5894 5895 5895 5896 5897 5897 5898 5899 5900 5900 5901 5901 5902 5902 5903 5906 5907 5906 5906 5907 5908 5908 5908 5909 5909 5909 5908 5908 5908 5908 5909 5909 5910 5910 5910
5883 5885 5887 5888 5889 5890 5892 5892 5893 5894 5894 5895 5896 5896 5897 5898 5899 5899 5899 5899 5899 5901 5903 5903 5903 5904 5905 5905 5905 5906 5906 5907 5907 5907 5906 5906 5906 5907 5907 5906 5906 5906
5880 5882 5884 5885 5886 5888 5889 5890 5891 5891 5892 5893 5894 5895 5895 5896 5897 5897 5897 5896 5897 5899 5900 5899 5899 5901 5902 5902 5903 5903 5904 5905 5905 5904 5904 5904 5903 5904 5904 5903 5903 5904
5878 5879 5881 5882 5883 5884 5885 5886 5886 5887 5889 5890 5892 5892 5893 5893 5894 5895 5894 5894 5896 5898 5897 5897 5897 5898 5899 5899 5900 5900 5901 5902 5903 5902 5901 5901 5900 5901 5901 5901 5901 5901
5875 5877 5879 5880 5880 5881 5882 5882 5882 5883 5885 5887 5888 5889 5890 5890 5891 5891 5891 5892 5894 5895 5895 5895 5895 5895 5896 5897 5897 5897 5898 5900 5900 5900 5899 5899 5899 5899 5899 5898 5898 5898
5872 5873 5875 5875 5875 5876 5877 5877 5878 5880 5882 5884 5885 5886 5887 5887 5888 5888 5888 5888 5891 5892 5893 5893 5892 5891 5892 5892 5892 5893 5895 5896 5896 5896 5896 5896 5896 5896 5895 5895 5894 5893
5868 5869 5870 5870 5871 5871 5872 5872 5874 5877 5881 5883 5883 5883 5883 5883 5884 5884 5884 5885 5887 5889 5890 5888 5887 5886 5887 5887 5888 5889 5890 5891 5891 5891 5892 5892 5892 5891 5891 5891 5890 5889
5864 5865 5865 5865 5865 5866 5867 5868 5870 5875 5879 5879 5878 5877 5878 5880 5881 5881 5881 5881 5882 5884 5885 5883 5882 5882 5883 5883 5884 5885 5885 5886 5886 5886 5887 5887 5887 5887 5887 5886 5885 5884
5859 5860 5860 5860 5860 5860 5862 5864 5867 5870 5872 5871 5871 5873 5875 5876 5878 5877 5876 5877 5877 5879 5879 5879 5879 5879 5879 5879 5880 5881 5881 5881 5881 5881 5881 5882 5882 5882 5882 5881 5880 5879
5855 5856 5856 5855 5855 5855 5856 5858 5861 5863 5865 5865 5865 5868 5871 5871 5871 5872 5872 5873 5874 5874 5874 5875 5875 5875 5875 5875 5876 5876 5877 5877 5877 5877 5877 5877 5876 5877 5876 5876 5875 5875
5851 5853 5853 5852 5851 5851 5852 5855 5856 5857 5859 5860 5860 5863 5866 5866 5865 5866 5867 5868 5870 5870 5870 5870 5871 5871 5871 5871 5872 5872 5872 5872 5872 5872 5872 5872 5872 5871 5871 5871 5871 5871
5848 5849 5849 5849 5848 5848 5849 5851 5852 5853 5854 5856 5856 5857 5861 5861 5861 5861 5863 5864 5866 5866 5865 5865 5866 5867 5867 5866 5867 5867 5867 5867 5867 5867 5867 5867 5867 5867 5867 5867 5867 5867
5843 5844 5846 5846 5845 5845 5845 5846 5848 5849 5850 5851 5852 5853 5854 5856 5856 5856 5857 5858 5860 5860 5860 5859 5861 5862 5862 5861 5862 5862 5861 5861 5861 5861 5862 5862 5862 5862 5863 5863 5863 5863